Location: Krasnoyarskiy
(51.1133°N, 71.6497°E)
Time: 23:30:19
(UTC+00:00)

Spot 4 Rocket - Pass Details

Date: 27 September 2022
Orbit: 775 x 780 km, 98.8° (Epoch: 03 December)

Event Time Altitude Azimuth Distance (km) Brightness Sun altitude
Rises 00:02:57 0° 14° (NNE) 3,274 7.6 -10.8°
Reaches altitude 10° 00:05:17 10° 14° (NNE) 2,341 6.9 -10.5°
Maximum altitude 00:10:27 83° 288° (WNW) 790 4.0 -9.7°
Drops below altitude 10° 00:15:34 10° 201° (SSW) 2,321 6.2 -8.9°
Sets 00:17:52 0° 200° (SSW) 3,244 7.0 -8.5°
